GW3762 Weather Reports


time (UTC)temp
C
wind
direction
speed
KPH
gust
KPH
rain 1hr
cm
rain 24hr
cm
rain mn
cm
humidity
%
barometer
mb
20260504175457 20 214 8.0 20.9 0.00 0.00 0.00 43 1010.5
20260504174956 20 246 14.5 29.0 0.00 0.00 0.00 44 1010.6
20260504174456 20 228 8.0 29.0 0.00 0.00 0.00 41 1010.6
20260504173956 20 242 14.5 19.3 0.00 0.00 0.00 43 1010.7
20260504173456 19 259 16.1 25.7 0.00 0.00 0.00 44 1010.9
20260504172957 19 227 6.4 25.7 0.00 0.00 0.00 41 1010.9
20260504172456 19 251 14.5 20.9 0.00 0.00 0.00 44 1010.9
20260504171956 19 231 9.7 25.7 0.00 0.00 0.00 46 1010.9
20260504171457 19 230 9.7 22.5 0.00 0.00 0.00 45 1010.8
20260504170957 19 239 9.7 24.1 0.00 0.00 0.00 40 1010.9
20260504170456 19 241 17.7 24.1 0.00 0.00 0.00 43 1010.9
20260504150957 17 245 6.4 27.4 0.00 0.00 0.00 43 1012.1
20260504140956 16 229 9.7 25.7 0.00 0.00 0.00 44 1012.5
20260504130502 13 265 6.4 24.1 0.00 0.00 0.00 50 1013.1
20260504110455 7 257 8.0 11.3 0.00 0.00 0.00 64 1013.2
20260504100457 6 259 9.7 12.9 0.00 0.00 0.00 66 1012.8
20260504081956 6 264 4.8 11.3 0.00 0.00 0.00 66 1012.4
20260504081457 6 264 6.4 11.3 0.00 0.00 0.00 66 1012.4
20260504080957 6 263 6.4 12.9 0.00 0.00 0.00 65 1012.4
20260504080456 6 263 9.7 12.9 0.00 0.00 0.00 66 1012.3
20260504050457 7 261 4.8 9.7 0.00 0.00 0.00 58 1012.0
20260504045959 7 261 6.4 6.4 0.00 0.00 0.00 58 1012.0
20260504045458 7 261 3.2 6.4 0.00 0.00 0.00 58 1012.1
20260504044958 7 261 4.8 9.7 0.00 0.00 0.00 57 1012.1
20260504044458 7 261 4.8 9.7 0.00 0.00 0.00 56 1012.0
20260504043458 7 259 6.4 9.7 0.00 0.00 0.00 56 1012.1
20260504042958 7 259 4.8 6.4 0.00 0.00 0.00 57 1012.0
20260504041959 7 259 4.8 6.4 0.00 0.00 0.00 57 1012.1
20260504041458 7 259 3.2 6.4 0.00 0.00 0.00 57 1012.0
20260504040458 7 259 4.8 9.7 0.00 0.00 0.00 56 1012.0
20260504040004 7 259 4.8 9.7 0.00 0.00 0.00 54 1012.0
20260504035459 8 261 6.4 9.7 0.00 0.00 0.00 54 1012.0
20260504035000 8 261 6.4 9.7 0.00 0.00 0.00 53 1012.0
20260504033959 8 256 4.8 8.0 0.00 0.00 0.00 53 1011.9
20260504032959 8 255 4.8 8.0 0.00 0.00 0.00 53 1011.9
20260504032458 8 255 4.8 6.4 0.00 0.00 0.00 54 1011.9
20260504031959 8 255 4.8 6.4 0.00 0.00 0.00 53 1011.9
20260504031459 8 255 4.8 8.0 0.00 0.00 0.00 53 1011.9
20260504030459 8 255 6.4 9.7 0.00 0.00 0.00 52 1011.9
20260504030000 8 259 6.4 11.3 0.00 0.00 0.00 52 1011.8
20260504025459 8 258 6.4 11.3 0.00 0.00 0.00 51 1011.8
20260504025000 8 261 9.7 11.3 0.00 0.00 0.00 51 1011.8
20260504023959 8 259 4.8 6.4 0.00 0.00 0.00 51 1011.8
20260504023500 8 259 6.4 6.4 0.00 0.00 0.00 50 1011.8
20260504022959 8 259 4.8 9.7 0.00 0.00 0.00 51 1011.8
20260504022459 8 261 6.4 9.7 0.00 0.00 0.00 51 1011.8
20260504021958 8 262 6.4 6.4 0.00 0.00 0.00 50 1011.9
20260504021459 8 262 6.4 9.7 0.00 0.00 0.00 50 1011.8
20260504015958 8 257 4.8 9.7 0.00 0.00 0.00 50 1011.8
20260504015458 8 257 6.4 9.7 0.00 0.00 0.00 49 1011.7
20260504014958 8 259 4.8 9.7 0.00 0.00 0.00 50 1011.7
20260504014459 8 258 6.4 1054.1 20.57 0.53 0.00 49
20260504013459 8 257 6.4 9.7 0.00 0.00 0.00 49 1011.7
20260504012958 8 259 4.8 6.4 0.00 0.00 0.00 49 1011.6
20260504012458 8 259 4.8 6.4 0.00 0.00 0.00 49 1011.5
20260504011959 8 265 4.8 6.4 0.00 0.00 0.00 51 1011.5
20260504011458 8 265 4.8 6.4 0.00 0.00 0.00 50 1011.5
20260504010958 8 265 4.8 6.4 0.00 0.00 0.00 50 1011.4
20260504010458 8 265 6.4 6.4 0.00 0.00 0.00 50 1011.3
20260504010000 8 265 3.2 4.8 0.00 0.00 0.00 52 1011.2
20260504005459 8 265 3.2 4.8 0.00 0.00 0.00 53 1011.2
20260504004459 8 265 4.8 6.4 0.00 0.00 0.00 52 1011.0
20260504003958 8 265 4.8 6.4 0.00 0.00 0.00 52 1011.0
20260504003458 8 265 3.2 6.4 0.00 0.00 0.00 51 1010.9
20260504002959 8 265 4.8 4.8 0.00 0.00 0.00 51 1010.8
20260504002459 8 265 3.2 4.8 0.00 0.00 0.00 50 1010.7
20260504001958 8 265 1.6 4.8 0.00 0.00 0.00 51 1010.7
20260504001458 8 265 4.8 4.8 0.00 0.00 0.00 53 1010.6
20260504001000 8 265 1.6 4.8 0.00 0.00 0.00 52 1010.6
20260504000459 8 265 3.2 4.8 0.00 0.00 0.00 49 1010.5
20260503235957 8 265 3.2 4.8 0.00 0.00 0.00 47 1010.3
20260503234957 9 265 1.6 3.2 0.00 0.00 0.00 45 1010.2
20260503234458 9 265 0.0 3.2 0.00 0.00 0.00 46 1010.2
20260503233958 9 265 1.6 3.2 0.00 0.00 0.00 49 1010.2
20260503233458 9 265 1.6 4.8 0.00 0.00 0.00 47 1010.1
20260503232958 10 290 3.2 4.8 0.00 0.00 0.00 49 1010.0
20260503232457 10 234 3.2 4.8 0.00 0.00 0.00 46 1010.0
20260503231457 10 254 3.2 8.0 0.00 0.00 0.00 46 1010.0
20260503230958 10 96 9.7 9.7 0.00 0.00 0.00 45 1009.9
20260503230458 11 301 0.0 6.4 0.00 0.00 0.00 43 1009.9
20260503230001 11 290 3.2 6.4 0.00 0.00 0.00 43 1009.8
20260503225459 11 269 1.6 11.3 0.00 0.00 0.00 45 1009.8
20260503224959 11 259 3.2 11.3 0.00 0.00 0.00 45 1009.7
20260503224459 11 249 1.6 8.0 0.00 0.00 0.00 44 1009.7
20260503223958 11 180 0.0 6.4 0.00 0.00 0.00 45 1009.7
20260503223458 11 223 3.2 6.4 0.00 0.00 0.00 45 1009.7
20260503222959 11 221 3.2 8.0 0.00 0.00 0.00 42 1009.7
20260503222458 11 273 1.6 8.0 0.00 0.00 0.00 43 1009.6
20260503221959 11 74 3.2 14.5 0.00 0.00 0.00 43 1009.6
20260503221500 11 291 6.4 14.5 0.00 0.00 0.00 41 1009.6
20260503220958 11 257 4.8 9.7 0.00 0.00 0.00 44 1009.6
20260503215958 11 297 4.8 12.9 0.00 0.00 0.00 45 1009.6
20260503215457 11 234 4.8 14.5 0.00 0.00 0.00 44 1009.7
20260503214458 11 246 3.2 12.9 0.00 0.00 0.00 44 1009.6
20260503213958 11 255 6.4 12.9 0.00 0.00 0.00 45 1009.5
20260503213457 11 284 3.2 12.9 0.00 0.00 0.00 42 1009.6
20260503212958 11 286 6.4 14.5 0.00 0.00 0.00 46 1009.5
20260503212458 11 280 0.0 14.5 0.00 0.00 0.00 44 1009.5
20260503211957 11 317 9.7 14.5 0.00 0.00 0.00 45 1009.5
20260503211457 11 265 9.7 12.9 0.00 0.00 0.00 45 1009.5
20260503210958 11 259 4.8 12.9 0.00 0.00 0.00 44 1009.6
20260503210458 11 265 4.8 12.9 0.00 0.00 0.00 43 1009.5
20260503210000 12 325 1.6 14.5 0.00 0.00 0.00 42 1009.6
20260503205458 12 254 11.3 17.7 0.00 0.00 0.00 44 1009.5
20260503204958 12 252 6.4 17.7 0.00 0.00 0.00 42 1009.5
20260503204457 12 250 4.8 12.9 0.00 0.00 0.00 43 1009.4
20260503203957 12 254 4.8 30.6 0.00 0.00 0.00 45 1009.4
20260503203458 12 246 16.1 30.6 0.00 0.00 0.00 41 1009.3
20260503202958 12 270 0.0 11.3 0.00 0.00 0.00 43 1009.5
20260503202458 12 266 1.6 17.7 0.00 0.00 0.00 48 1009.5
20260503201958 11 297 6.4 14.5 0.00 0.00 0.00 45 1009.5
20260503201457 12 275 9.7 19.3 0.00 0.00 0.00 43 1009.4
20260503200458 12 269 3.2 14.5 0.00 0.00 0.00 45 1009.5
20260503195958 12 263 6.4 16.1 0.00 0.00 0.00 42 1009.4
20260503194958 12 279 4.8 16.1 0.00 0.00 0.00 44 1009.2
20260503194458 13 287 8.0 20.9 0.00 0.00 0.00 44 1009.3
20260503193958 13 252 6.4 20.9 0.00 0.00 0.00 46 1009.2
20260503193458 13 272 11.3 17.7 0.00 0.00 0.00 46 1009.3
20260503192958 13 231 4.8 16.1 0.00 0.00 0.00 45 1009.2
20260503192457 12 275 6.4 14.5 0.00 0.00 0.00 48 1009.3
20260503191458 12 261 11.3 19.3 0.00 0.00 0.00 45 1009.3
20260503191001 13 244 8.0 16.1 0.00 0.00 0.00 41 1009.2
20260503190459 13 284 3.2 17.7 0.00 0.00 0.00 47 1009.2
20260503190003 13 266 4.8 17.7 0.00 0.00 0.00 46 1009.2
20260503185458 13 290 8.0 19.3 0.00 0.00 0.00 44 1009.3
20260503185006 13 259 6.4 19.3 0.00 0.00 0.00 45 1009.2
20260503184458 12 254 12.9 14.5 0.00 0.00 0.00 47 1009.2
20260503183958 12 292 12.9 19.3 0.00 0.00 0.00 47 1009.2
20260503182957 12 304 6.4 14.5 0.00 0.00 0.00 42 1009.3
20260503182457 11 315 9.7 16.1 0.00 0.00 0.00 44 1009.4
20260503181457 12 108 1.6 16.1 0.00 0.00 0.00 45 1009.2
20260503180458 12 254 4.8 16.1 0.00 0.00 0.00 46 1009.3
20260503180000 12 236 3.2 14.5 0.00 0.00 0.00 48 1009.2